This is the latest recevied weather packets stored in our database for station/object N6RDS-8. If no packets are shown the sender has not sent any weather packets the latest 10 day(s).
| Time | Temp. | Humidity | Pressure | Rain* | Wind** | Luminosity | Snow |
|---|---|---|---|---|---|---|---|
| 1777662801 | 22.78° C | 41% | 1017.5 hPa | 0 mm | - | 765 W/m² | - |
| 1777662497 | 22.22° C | 43% | 1017.5 hPa | 0 mm | - | 766 W/m² | - |
| 1777662193 | 22.78° C | 44% | 1017.7 hPa | 0 mm | - | 763 W/m² | - |
| 1777661889 | 22.22° C | 45% | 1017.8 hPa | 0 mm | - | 760 W/m² | - |
| 1777661585 | 21.67° C | 43% | 1017.8 hPa | 0 mm | - | 758 W/m² | - |
| 1777661281 | 21.67° C | 45% | 1017.9 hPa | 0 mm | - | 755 W/m² | - |
| 1777660976 | 22.22° C | 45% | 1017.8 hPa | 0 mm | - | 750 W/m² | - |
| 1777660672 | 22.22° C | 43% | 1017.9 hPa | 0 mm | - | 747 W/m² | - |
| 1777660370 | 22.22° C | 44% | 1018.1 hPa | 0 mm | - | 741 W/m² | - |
| 1777660066 | 21.67° C | 47% | 1018.1 hPa | 0 mm | - | 736 W/m² | - |
| 1777659763 | 21.67° C | 45% | 1017.9 hPa | 0 mm | - | 732 W/m² | - |
| 1777659460 | 21.11° C | 47% | 1018 hPa | 0 mm | - | 726 W/m² | - |
| 1777659157 | 21.67° C | 45% | 1018.2 hPa | 0 mm | - | 720 W/m² | - |
| 1777658855 | 21.11° C | 45% | 1018.2 hPa | 0 mm | - | 712 W/m² | - |
| 1777658550 | 20.56° C | 47% | 1018.4 hPa | 0 mm | - | 706 W/m² | - |
| 1777658247 | 20.56° C | 48% | 1018.2 hPa | 0 mm | - | 699 W/m² | - |
| 1777657945 | 20.56° C | 46% | 1018.2 hPa | 0 mm | - | 695 W/m² | - |
| 1777657641 | 20.56° C | 49% | 1018.2 hPa | 0 mm | - | 686 W/m² | - |
| 1777657338 | 20.56° C | 52% | 1018.4 hPa | 0 mm | - | 678 W/m² | - |
| 1777657036 | 20.56° C | 57% | 1018.4 hPa | 0 mm | - | 669 W/m² | - |
| 1777656733 | 20.56° C | 51% | 1018.5 hPa | 0 mm | - | 659 W/m² | - |
| 1777656429 | 20.56° C | 54% | 1018.1 hPa | 0 mm | - | 649 W/m² | - |
| 1777656124 | 20.56° C | 53% | 1018.5 hPa | 0 mm | - | 639 W/m² | - |
| 1777655820 | 19.44° C | 58% | 1018.5 hPa | 0 mm | - | 628 W/m² | - |
| 1777655517 | 20° C | 56% | 1018.4 hPa | 0 mm | - | 618 W/m² | - |
* Rain latest hour (hover to see other rain measurements)
** Current wind speed in m/s (hover to see current wind gust speed)